When you browse on this site, cookies collect data to enhance your experience and personalize the content and advertising you see.
Visit our Privacy Policy to learn more. By continuing to use the site, you agree to this use of cookies and data.
  • In Italy
  • List of Countries
  • For 7 days
  • Water Temperature
  • Satellite Maps
  • Weather Map
  • Weather Widgets
  • user-avatar
    Login

    Hourly Weather Djelfa

    Today, 18 January, Friday

    Time Temperature Precipitation Wind Pressure Humidity
    00:00 +2°C° 0 mm 0 mps 661 mmHg 61%
    01:00 +3°C° 0 mm 1 mps 661 mmHg 64%
    02:00 +3°C° 0 mm 1 mps 661 mmHg 67%
    03:00 +3°C° 0 mm 1 mps 661 mmHg 69%
    04:00 +2°C° 0 mm 1 mps 661 mmHg 72%
    05:00 +2°C° 0 mm 1 mps 661 mmHg 74%
    06:00 +1°C° 0 mm 2 mps 661 mmHg 77%
    07:00 +3°C° 0 mm 2 mps 662 mmHg 72%
    08:00 +3°C° 0 mm 3 mps 662 mmHg 67%
    09:00 +4°C° 0 mm 3 mps 663 mmHg 62%
    10:00 +5°C° 0 mm 4 mps 663 mmHg 58%
    11:00 +6°C° 0 mm 5 mps 663 mmHg 54%
    12:00 +7°C° 0 mm 6 mps 663 mmHg 51%
    13:00 +7°C° 0 mm 6 mps 663 mmHg 51%
    14:00 +7°C° 0 mm 6 mps 662 mmHg 51%
    15:00 +8°C° 0 mm 6 mps 662 mmHg 51%
    16:00 +6°C° 0 mm 5 mps 662 mmHg 58%
    17:00 +5°C° 0 mm 4 mps 662 mmHg 64%
    18:00 +4°C° 0 mm 3 mps 662 mmHg 70%
    19:00 +4°C° 0 mm 3 mps 662 mmHg 75%
    20:00 +3°C° 0 mm 3 mps 662 mmHg 80%
    21:00 +2°C° 0 mm 3 mps 662 mmHg 84%
    22:00 +2°C° 0 mm 3 mps 662 mmHg 85%
    23:00 +1°C° 0 mm 4 mps 662 mmHg 86%

    Tomorrow, 19 January, Saturday

    Time Temperature Precipitation Wind Pressure Humidity
    00:00 +1°C° 0 mm 4 mps 662 mmHg 87%
    01:00 +1°C° 0 mm 4 mps 662 mmHg 89%
    02:00 0°C° 0 mm 5 mps 662 mmHg 90%
    03:00 0°C° 0 mm 5 mps 662 mmHg 92%
    04:00 0°C° 0 mm 5 mps 662 mmHg 91%
    05:00 -1°C° 0 mm 6 mps 662 mmHg 91%
    06:00 -1°C° 0 mm 6 mps 662 mmHg 90%
    07:00 0°C° 0 mm 7 mps 662 mmHg 86%
    08:00 0°C° 0 mm 8 mps 663 mmHg 83%
    09:00 +1°C° 0 mm 9 mps 663 mmHg 79%
    10:00 +2°C° 0 mm 9 mps 663 mmHg 73%
    11:00 +3°C° 0 mm 9 mps 663 mmHg 67%
    12:00 +5°C° 0 mm 8 mps 663 mmHg 61%
    13:00 +5°C° 0 mm 9 mps 663 mmHg 60%
    14:00 +5°C° 0 mm 9 mps 662 mmHg 60%
    15:00 +5°C° 0 mm 9 mps 662 mmHg 59%
    16:00 +5°C° 0 mm 8 mps 662 mmHg 64%
    17:00 +4°C° 0 mm 7 mps 662 mmHg 70%
    18:00 +3°C° 0 mm 6 mps 662 mmHg 75%
    19:00 +3°C° 0 mm 5 mps 662 mmHg 77%
    20:00 +2°C° 0 mm 5 mps 662 mmHg 79%
    21:00 +2°C° 0 mm 5 mps 662 mmHg 81%
    22:00 +3°C° 0 mm 4 mps 662 mmHg 80%
    23:00 +3°C° 0 mm 4 mps 662 mmHg 79%

    Day after tomorrow, 20 January, Sunday

    Time Temperature Precipitation Wind Pressure Humidity
    00:00 +3°C° 0 mm 4 mps 662 mmHg 78%
    01:00 +2°C° 0 mm 5 mps 662 mmHg 82%
    02:00 +2°C° 0 mm 5 mps 661 mmHg 86%
    03:00 +2°C° 0 mm 5 mps 661 mmHg 89%
    04:00 +2°C° 0 mm 5 mps 661 mmHg 90%
    05:00 +2°C° 0 mm 6 mps 661 mmHg 90%
    06:00 +3°C° 0 mm 6 mps 661 mmHg 90%
    07:00 +3°C° 0.1 mm 6 mps 661 mmHg 85%
    08:00 +4°C° 0.1 mm 7 mps 661 mmHg 80%
    09:00 +5°C° 0.1 mm 8 mps 661 mmHg 74%
    10:00 +6°C° 0.7 mm 8 mps 661 mmHg 73%
    11:00 +6°C° 0.7 mm 9 mps 661 mmHg 72%
    12:00 +7°C° 0.7 mm 10 mps 661 mmHg 70%
    13:00 +7°C° 0.2 mm 10 mps 660 mmHg 69%
    14:00 +7°C° 0.2 mm 9 mps 660 mmHg 69%
    15:00 +7°C° 0.2 mm 9 mps 660 mmHg 68%
    16:00 +6°C° 0.3 mm 9 mps 660 mmHg 71%
    17:00 +6°C° 0.3 mm 8 mps 659 mmHg 75%
    18:00 +5°C° 0.3 mm 8 mps 659 mmHg 79%
    19:00 +4°C° 0 mm 8 mps 660 mmHg 82%
    20:00 +4°C° 0 mm 7 mps 660 mmHg 86%
    21:00 +3°C° 0 mm 7 mps 660 mmHg 89%
    22:00 +2°C° 0.1 mm 8 mps 660 mmHg 89%
    23:00 +2°C° 0.1 mm 8 mps 660 mmHg 90%

    21 January, Monday

    Time Temperature Precipitation Wind Pressure Humidity
    00:00 +2°C° 0.1 mm 9 mps 660 mmHg 90%
    01:00 +2°C° 0.2 mm 9 mps 660 mmHg 90%
    02:00 +2°C° 0.2 mm 8 mps 660 mmHg 90%
    03:00 +2°C° 0.2 mm 8 mps 660 mmHg 90%
    04:00 +1°C° 0 mm 8 mps 660 mmHg 90%
    05:00 +1°C° 0 mm 8 mps 660 mmHg 90%
    06:00 0°C° 0 mm 8 mps 660 mmHg 89%
    07:00 0°C° 0 mm 8 mps 661 mmHg 88%
    08:00 +2°C° 0 mm 7 mps 661 mmHg 87%
    09:00 +2°C° 0 mm 7 mps 662 mmHg 85%
    10:00 +3°C° 0 mm 7 mps 662 mmHg 78%
    11:00 +3°C° 0 mm 6 mps 662 mmHg 72%
    12:00 +4°C° 0 mm 6 mps 662 mmHg 65%
    13:00 +4°C° 0 mm 6 mps 662 mmHg 63%
    14:00 +5°C° 0 mm 6 mps 662 mmHg 61%
    15:00 +5°C° 0 mm 6 mps 662 mmHg 60%
    16:00 +4°C° 0 mm 6 mps 662 mmHg 67%
    17:00 +3°C° 0 mm 6 mps 662 mmHg 74%
    18:00 +2°C° 0 mm 6 mps 662 mmHg 80%
    19:00 +2°C° 0 mm 6 mps 663 mmHg 83%
    20:00 +1°C° 0 mm 6 mps 663 mmHg 86%
    21:00 +1°C° 0 mm 6 mps 663 mmHg 88%
    22:00 +1°C° 0 mm 6 mps 663 mmHg 88%
    23:00 -1°C° 0 mm 6 mps 663 mmHg 88%

    22 January, Tuesday

    Time Temperature Precipitation Wind Pressure Humidity
    00:00 -1°C° 0 mm 7 mps 663 mmHg 87%
    01:00 -1°C° 0 mm 7 mps 663 mmHg 88%
    02:00 -1°C° 0 mm 7 mps 663 mmHg 88%
    03:00 -2°C° 0 mm 7 mps 662 mmHg 89%
    04:00 -2°C° 0 mm 7 mps 662 mmHg 88%
    05:00 -1°C° 0 mm 7 mps 662 mmHg 88%
    06:00 -1°C° 0 mm 8 mps 662 mmHg 88%
    07:00 -1°C° 0 mm 8 mps 663 mmHg 85%
    08:00 -1°C° 0 mm 9 mps 663 mmHg 81%
    09:00 -2°C° 0 mm 10 mps 663 mmHg 78%
    10:00 0°C° 0 mm 10 mps 663 mmHg 69%
    11:00 +1°C° 0 mm 11 mps 662 mmHg 60%
    12:00 +1°C° 0 mm 11 mps 662 mmHg 51%
    13:00 +1°C° 0 mm 11 mps 662 mmHg 52%
    14:00 0°C° 0 mm 12 mps 661 mmHg 53%
    15:00 0°C° 0 mm 12 mps 660 mmHg 55%
    16:00 +1°C° 0 mm 11 mps 660 mmHg 58%
    17:00 0°C° 0 mm 9 mps 660 mmHg 62%
    18:00 0°C° 0 mm 8 mps 660 mmHg 66%
    19:00 -1°C° 0 mm 8 mps 660 mmHg 71%
    20:00 -1°C° 0 mm 8 mps 660 mmHg 76%
    21:00 -1°C° 0 mm 8 mps 660 mmHg 81%
    22:00 -1°C° 0 mm 9 mps 659 mmHg 81%
    23:00 -2°C° 0 mm 10 mps 659 mmHg 81%

    23 January, Wednesday

    Time Temperature Precipitation Wind Pressure Humidity
    00:00 -2°C° 0 mm 11 mps 658 mmHg 81%
    01:00 -2°C° 0.1 mm 12 mps 658 mmHg 82%
    02:00 -1°C° 0.1 mm 13 mps 657 mmHg 84%
    03:00 -1°C° 0.1 mm 13 mps 657 mmHg 85%
    04:00 -1°C° 0.2 mm 13 mps 656 mmHg 85%
    05:00 -1°C° 0.2 mm 13 mps 656 mmHg 85%
    06:00 -2°C° 0.2 mm 13 mps 656 mmHg 84%
    07:00 -1°C° 0 mm 14 mps 656 mmHg 80%
    08:00 -1°C° 0 mm 14 mps 656 mmHg 75%
    09:00 -1°C° 0 mm 14 mps 656 mmHg 71%
    10:00 0°C° 0 mm 15 mps 656 mmHg 66%
    11:00 +2°C° 0 mm 15 mps 656 mmHg 60%
    12:00 +4°C° 0 mm 16 mps 656 mmHg 55%
    13:00 +2°C° 0 mm 16 mps 656 mmHg 60%
    14:00 +2°C° 0 mm 16 mps 655 mmHg 64%
    15:00 +1°C° 0 mm 16 mps 655 mmHg 69%
    16:00 +1°C° 0 mm 16 mps 655 mmHg 72%
    17:00 +1°C° 0 mm 15 mps 655 mmHg 75%
    18:00 0°C° 0 mm 15 mps 655 mmHg 79%
    19:00 0°C° 0 mm 15 mps 655 mmHg 80%
    20:00 0°C° 0 mm 14 mps 655 mmHg 82%
    21:00 0°C° 0 mm 14 mps 655 mmHg 84%
    22:00 0°C° 0 mm 14 mps 654 mmHg 83%
    23:00 0°C° 0 mm 14 mps 654 mmHg 83%
    Show more